Temperature
21 21 21 22 26 29 29 29 29 29 29 28 27 28 28 28 28 26 22 22 21 21 20 21 21 20 20 20 20 20 20 19 19 19 19 19 19 19 19 19 19 19 19 18 18 18 18 18 18
20 20 21 25 28 29 29 29 29 29 28 27 27 27 27 27 25 23 22 21 21 20 20 21 21 20 20 20 20 20 19 19 19 19 19 19 19 19 19 19 19 19 18 18 18 18 18 18 18
20 21 24 28 28 29 29 29 29 28 27 27 27 27 27 25 24 23 21 21 21 20 20 21 21 20 20 20 20 20 19 19 19 19 19 19 19 19 19 19 18 18 18 18 18 18 18 18 18
21 23 25 28 28 29 29 29 28 28 27 27 27 27 25 23 23 22 21 21 20 20 20 20 20 20 20 20 19 19 19 19 19 19 19 19 19 18 18 18 18 18 18 18 18 18 17 17 17
22 25 27 28 29 29 29 28 28 28 28 27 27 27 25 22 22 21 21 20 20 20 20 20 20 20 20 19 19 19 19 19 19 19 18 18 18 18 18 18 18 18 18 17 17 17 17 17 17
25 27 28 28 28 28 28 27 27 28 28 27 27 27 24 22 21 21 21 20 20 20 20 19 20 20 19 19 19 19 19 19 19 18 18 18 18 18 18 18 18 17 17 17 17 17 17 17 17
26 27 28 28 28 28 28 27 27 28 28 27 26 26 24 22 21 21 21 20 20 20 20 19 19 19 19 19 19 19 19 19 18 18 18 18 18 18 18 17 17 17 17 17 17 17 17 17 17
25 27 28 28 28 28 27 27 26 26 27 25 25 26 24 21 21 21 20 20 20 20 19 19 19 19 19 19 19 19 19 18 18 18 18 18 18 18 17 17 17 17 17 17 17 17 17 17 17
24 27 27 28 27 27 27 27 26 25 25 25 24 24 23 21 20 20 20 20 20 19 19 19 19 19 18 18 18 18 18 18 18 18 18 17 17 16 17 16 17 17 17 17 17 17 16 16 16
26 27 27 27 28 27 26 26 26 26 26 25 24 22 21 21 20 20 20 20 20 19 19 19 19 18 18 18 18 18 17 17 17 17 17 17 16 16 16 16 16 17 16 16 16 16 16 16 16
26 27 27 27 26 26 26 25 25 26 26 25 24 22 21 21 20 20 20 20 19 19 19 19 18 18 18 18 18 17 17 17 17 17 17 16 16 16 16 16 16 16 16 16 15 16 15 15 15
26 26 26 26 25 25 25 25 25 24 24 23 23 22 21 21 20 20 20 20 19 19 19 19 18 18 18 18 18 17 17 17 17 16 16 16 16 16 16 15 15 15 15 15 15 15 15 15 15
26 26 25 25 25 25 24 24 24 24 23 22 22 21 21 20 20 19 19 19 19 18 18 18 18 18 18 18 18 17 17 17 17 16 16 16 16 16 15 15 15 15 15 15 15 15 15 15 15
26 26 25 25 25 25 25 25 24 23 22 22 21 21 20 20 19 19 19 18 18 18 18 18 18 18 18 18 17 17 17 17 16 16 16 16 16 15 15 15 15 15 15 15 15 14 14 14 15
25 26 26 26 26 25 25 25 24 23 22 22 21 20 20 19 19 19 18 18 18 18 18 18 18 18 17 17 17 17 17 16 16 16 16 16 15 15 15 15 15 15 14 14 14 14 14 14 14
27 27 27 26 26 25 26 25 24 22 22 22 21 20 19 19 19 18 18 18 17 17 18 18 17 17 17 17 17 17 16 16 16 16 16 15 15 15 15 15 14 14 14 14 14 14 14 14 14
27 27 27 26 26 26 26 25 24 22 22 22 21 20 20 19 18 18 17 17 17 17 17 17 17 17 17 17 17 16 16 16 15 15 15 15 15 15 14 14 14 14 14 14 14 14 14 14 14
27 27 26 26 26 25 25 25 24 22 22 22 21 20 20 19 18 18 17 17 17 17 17 17 17 17 17 16 16 16 16 15 15 15 15 15 15 14 14 14 14 14 14 14 14 13 14 14 14
27 26 26 26 26 25 25 24 23 22 22 22 21 20 20 19 18 17 17 16 16 16 17 17 17 16 16 16 16 16 15 15 15 15 15 15 14 14 14 14 14 14 14 13 13 14 14 14 13
26 26 26 25 25 25 25 24 24 23 22 21 21 20 19 19 18 17 17 16 16 16 16 16 16 16 16 16 16 15 15 15 15 14 14 14 14 14 14 14 14 14 13 13 13 13 13 13 13
26 26 26 25 25 25 25 24 24 23 22 21 20 20 19 19 18 17 17 16 16 16 16 16 16 16 16 15 15 15 14 14 14 14 14 14 14 14 14 13 13 13 13 13 13 13 13 13 13
26 26 26 25 25 26 25 25 24 23 22 21 20 19 19 18 18 17 17 16 16 16 16 16 16 15 15 15 14 14 14 14 14 14 14 14 14 13 13 13 13 13 13 13 13 13 13 13 13
26 26 26 26 26 26 25 25 25 24 22 22 20 19 18 18 17 17 16 16 16 16 16 15 15 15 15 15 14 14 14 14 14 13 13 13 13 13 13 13 13 13 13 13 12 12 12 12 13
25 26 25 25 26 25 25 25 24 23 22 22 21 19 18 17 17 16 16 16 15 15 15 15 15 15 15 14 14 14 14 14 13 13 13 13 13 13 13 13 13 12 12 12 12 12 12 12 12
26 25 25 25 25 25 25 24 23 22 21 21 20 19 18 17 16 16 16 15 15 15 15 14 14 14 14 14 14 14 14 13 13 13 13 13 13 13 13 13 13 12 12 12 12 12 12 12 12
25 25 24 24 24 25 24 24 23 21 20 20 19 18 17 17 16 16 15 15 15 14 14 14 14 14 14 14 14 14 13 13 13 13 13 13 13 13 13 12 12 12 12 12 12 12 12 12 12
25 25 25 24 24 24 24 23 22 21 21 20 19 18 17 16 16 15 15 15 14 14 14 14 13 13 13 13 13 13 13 13 13 13 13 13 13 13 12 12 12 12 12 12 12 12 12 12 12
25 25 24 24 23 23 23 23 23 21 21 20 19 18 17 16 15 15 15 14 14 14 13 13 13 13 13 13 12 13 13 12 12 13 13 13 12 12 12 12 12 12 12 12 12 12 11 11 11
24 24 24 24 23 22 22 22 21 21 20 20 19 18 17 16 15 15 14 14 14 13 13 13 13 13 12 12 12 12 12 12 12 12 12 12 12 12 12 12 12 12 12 12 12 11 11 11 11
24 24 23 22 22 22 22 22 21 20 20 19 18 17 16 16 15 15 14 14 14 13 13 12 12 12 12 12 12 12 12 12 12 12 12 12 12 12 12 12 12 12 11 11 11 11 11 11 11
Wind_Speed
8 6 6 5 6 5 3 2 1 2 2 2 2 2 2 4 4 3 5 8 10 13 16 18 16 15 14 13 13 13 14 14 14 13 13 13 12 12 11 11 10 9 8 7 6 6 5 4 4
6 5 5 5 7 5 2 2 1 2 2 1 0 0 1 3 4 4 6 9 11 13 15 16 17 15 14 13 13 13 13 13 13 13 12 12 11 11 10 10 9 8 7 7 6 5 5 5 4
6 6 5 5 5 4 1 3 2 3 1 0 0 1 2 3 3 3 6 12 12 12 13 16 17 15 14 13 13 12 12 12 12 11 11 11 11 10 10 9 9 8 7 6 6 5 5 4 4
5 5 5 7 5 1 1 2 2 1 1 0 0 1 3 4 2 5 10 12 12 12 13 16 16 14 13 13 12 12 12 11 11 10 10 9 10 9 9 8 8 7 7 6 5 5 4 5 5
6 5 7 7 5 1 0 2 2 1 0 0 1 1 3 4 5 8 11 12 12 12 12 15 15 14 13 12 12 11 11 11 10 10 9 9 8 8 8 8 7 7 6 6 6 5 5 6 6
5 5 6 5 4 2 0 2 2 2 0 0 0 0 3 5 6 8 10 10 10 11 11 14 14 13 12 11 11 11 10 10 10 9 8 8 8 7 7 7 7 6 6 6 6 6 6 7 7
6 6 6 4 3 2 0 2 2 2 0 1 1 0 3 5 6 8 9 9 9 10 10 12 13 13 13 11 11 10 10 10 9 9 8 8 7 7 7 7 6 6 7 7 7 7 7 7 8
5 5 5 4 3 2 1 1 1 3 1 3 1 0 2 5 7 8 9 8 8 8 9 9 10 10 11 11 11 10 9 9 8 8 8 8 8 8 8 9 7 7 7 7 8 8 8 9 9
5 6 4 3 2 1 1 2 2 1 1 2 2 3 3 7 8 8 8 8 8 7 7 7 8 8 8 9 10 10 10 9 9 9 9 9 8 8 8 7 6 7 8 8 8 8 9 11 11
5 5 2 2 3 1 1 2 3 1 1 2 3 4 5 7 8 8 8 8 8 8 7 7 7 7 7 6 7 7 8 8 8 7 7 7 6 6 6 4 6 7 9 10 9 10 11 13 10
4 3 2 2 2 3 3 2 3 1 1 2 1 3 5 6 6 6 6 6 6 7 6 6 6 6 6 4 5 5 5 5 7 7 7 6 5 5 5 5 6 8 9 9 8 10 9 9 7
3 3 3 3 2 3 3 1 2 3 3 3 1 4 5 5 5 4 4 4 4 5 5 6 6 5 5 4 4 4 4 4 4 5 6 5 4 4 4 4 5 5 5 5 6 6 7 8 8
5 3 1 2 2 2 1 1 1 2 3 4 5 6 5 5 4 4 3 2 2 4 4 4 5 5 4 4 3 3 3 3 4 4 5 5 4 4 4 4 4 6 5 5 6 7 7 7 8
2 3 3 3 1 2 1 1 1 2 3 4 5 6 6 5 4 4 3 2 2 2 3 3 4 4 4 3 3 3 3 3 3 3 4 5 4 4 4 5 4 5 5 5 6 6 6 7 6
4 5 5 3 3 3 3 2 1 3 3 5 5 5 6 5 4 3 2 1 1 1 2 2 3 4 4 3 3 3 3 3 3 3 3 4 5 4 5 5 5 4 5 5 6 6 6 6 7
7 6 5 2 3 3 6 2 4 3 4 5 5 5 5 4 4 3 2 2 1 0 1 2 2 3 3 3 3 2 3 3 3 3 4 4 4 5 5 5 5 4 5 5 4 6 6 6 6
5 4 2 2 2 3 5 1 5 3 4 4 4 3 4 4 3 3 3 2 2 1 1 1 1 2 2 2 2 3 2 3 3 3 3 4 5 6 6 5 4 5 5 5 6 5 6 6 6
2 2 2 1 1 3 3 2 4 3 3 3 3 3 3 3 3 2 2 2 2 2 1 1 1 1 1 2 2 2 3 3 3 3 3 4 4 5 6 5 5 6 5 5 5 5 5 6 6
4 4 2 0 1 3 4 3 3 3 3 2 2 2 2 2 3 3 3 2 3 3 2 0 0 1 1 1 2 2 3 3 2 3 3 4 4 5 5 5 4 5 5 5 6 5 6 6 4
4 4 2 1 2 3 4 3 4 3 2 1 1 1 1 2 3 3 3 2 2 2 2 1 1 1 2 2 3 2 3 3 3 3 3 4 4 5 5 5 5 4 4 5 6 6 5 5 4
4 4 3 2 2 4 5 5 5 4 2 1 1 0 1 2 2 2 3 2 2 2 2 2 2 2 3 2 2 2 2 3 3 3 3 3 4 5 5 5 5 5 5 5 6 6 7 6 5
4 3 4 4 6 4 6 5 5 4 2 1 0 1 1 2 2 3 3 2 2 1 1 2 2 2 3 3 3 3 3 3 3 3 3 3 4 5 5 6 6 6 6 5 6 5 6 6 6
4 4 5 6 8 6 5 6 2 3 1 1 0 1 1 2 3 4 3 3 2 2 2 2 2 2 3 3 2 3 4 3 2 3 3 4 4 4 5 5 5 5 6 6 6 5 6 6 7
3 4 5 7 8 7 3 5 2 1 2 1 1 1 2 3 4 4 4 4 3 3 2 2 2 2 3 3 2 3 4 4 4 4 4 4 3 4 5 4 4 5 5 5 6 6 7 6 7
4 6 4 5 5 3 0 4 2 5 4 2 2 2 2 2 3 4 4 4 4 4 4 3 3 3 4 4 3 3 3 4 4 4 4 4 4 4 4 5 4 5 5 6 6 6 6 6 7
4 6 5 5 5 4 2 2 3 5 4 3 3 2 2 2 3 4 4 4 4 4 5 5 4 4 4 4 3 3 3 4 3 4 4 4 4 4 5 5 5 5 6 6 5 5 5 5 6
4 4 5 7 7 7 3 1 2 4 3 3 3 2 2 2 3 3 4 4 4 4 4 5 5 5 5 5 4 3 3 4 4 4 4 4 4 4 4 5 4 4 5 5 5 5 5 5 6
3 4 4 4 4 5 4 3 2 3 4 4 3 3 3 3 2 3 3 4 4 4 4 5 5 6 6 5 5 4 4 3 4 4 4 4 5 5 5 5 4 4 4 4 4 5 4 5 5
3 2 4 4 5 5 5 3 5 5 5 4 4 4 3 3 3 3 3 4 4 4 4 5 6 6 6 6 5 5 5 5 5 4 4 4 5 5 5 5 5 4 4 4 4 5 5 5 5
3 4 4 4 4 5 5 2 6 5 4 4 4 4 4 3 3 3 3 3 4 5 5 5 6 6 6 6 6 5 5 5 5 5 5 4 4 5 5 5 5 5 4 4 5 5 5 5 5
Wind_Direction
209 209 222 233 239 231 230 119 114 116 85 45 360 317 350 6 359 47 98 138 142 143 143 151 152 151 151 150 150 150 151 152 153 154 154 156 157 159 160 161 163 165 167 168 169 169 174 179 182
201 206 226 237 250 223 172 94 107 60 48 34 2 304 21 46 40 83 121 138 145 143 147 153 151 154 154 152 150 150 152 154 155 156 158 159 160 162 164 166 168 170 172 175 178 182 187 192 197
201 225 243 239 243 252 107 76 50 55 60 230 56 13 9 37 69 103 128 144 145 143 146 145 153 156 156 155 153 154 154 155 156 159 162 164 166 168 170 174 177 178 180 183 187 194 200 207 213
208 219 231 240 223 231 350 38 28 30 72 79 300 70 70 41 43 110 134 146 146 148 150 145 155 157 157 156 156 158 157 157 159 161 166 169 172 175 178 182 186 188 189 193 198 205 219 229 232
230 238 228 223 219 192 333 338 318 288 13 24 299 60 58 55 87 120 139 147 150 149 147 145 154 156 158 159 161 162 161 162 164 168 174 176 178 183 186 189 193 195 199 207 213 220 229 236 241
222 235 234 220 206 197 224 315 297 261 238 256 286 117 68 86 112 128 139 148 149 147 145 141 149 154 157 161 163 163 164 165 169 173 177 180 182 184 189 193 199 208 217 224 227 231 235 239 243
248 242 240 232 222 206 19 333 305 305 273 0 327 115 101 103 118 133 137 143 144 146 145 148 155 158 160 165 167 167 169 171 173 175 179 183 185 188 196 203 210 218 227 231 233 236 240 243 244
266 250 232 228 234 227 22 335 325 317 7 33 346 192 126 118 130 136 137 139 141 147 153 155 157 162 170 171 172 174 175 176 175 178 184 191 197 200 208 213 212 225 234 237 241 243 243 244 243
246 244 230 232 250 233 18 311 5 1 90 72 35 21 91 130 141 143 142 146 149 150 157 164 166 169 177 175 168 177 182 185 185 188 191 204 215 214 212 217 207 228 239 243 244 248 247 245 233
235 247 262 333 313 298 326 326 342 285 150 76 69 78 114 140 154 159 159 162 163 164 170 170 171 174 179 177 170 187 193 187 200 199 199 210 220 232 241 186 210 231 240 241 240 245 246 247 242
237 267 312 312 303 298 300 346 347 290 318 352 43 111 133 149 160 166 168 169 170 169 172 173 176 182 182 180 183 190 195 192 204 207 209 215 224 228 241 234 215 226 232 240 234 239 246 251 254
238 269 296 299 289 275 291 302 3 12 359 8 64 133 143 149 152 157 162 167 167 171 181 182 182 184 193 195 196 197 204 203 206 200 216 218 225 233 236 243 247 242 242 251 256 254 253 257 255
235 252 275 281 269 254 239 243 2 38 49 68 99 123 129 131 126 124 123 135 162 175 182 190 191 183 185 194 211 204 214 216 211 216 213 226 232 236 237 242 249 256 257 249 253 256 257 258 255
263 258 250 247 194 195 190 225 229 67 83 93 103 113 113 113 108 108 112 131 169 193 194 196 195 187 194 200 215 220 218 216 230 222 218 227 239 241 241 239 243 252 257 263 263 263 263 263 262
243 238 219 208 215 201 211 196 125 102 110 105 101 103 102 97 94 90 95 114 173 194 197 200 195 192 200 209 225 232 227 226 228 220 217 228 238 241 246 248 246 253 257 253 257 266 265 262 262
226 230 217 177 210 213 241 188 93 115 122 107 96 95 96 90 84 70 56 52 43 64 179 196 196 187 193 199 222 239 241 233 235 232 226 229 242 246 250 254 254 260 261 257 256 258 262 265 267
214 236 225 161 189 221 237 158 109 120 129 120 118 110 102 89 73 61 44 39 32 42 112 151 154 181 197 201 207 224 233 244 245 245 244 233 239 247 255 259 260 254 254 256 259 257 265 266 269
291 276 234 208 148 221 225 164 128 139 145 137 137 124 106 81 59 52 46 39 38 40 73 93 130 153 210 210 218 233 238 242 246 249 254 254 249 252 263 261 259 260 257 257 261 264 262 268 269
296 277 256 231 158 230 211 179 147 146 152 142 138 126 97 65 50 49 51 54 58 50 44 61 229 182 226 228 234 234 243 250 252 254 247 251 255 258 265 277 271 267 262 260 259 263 264 262 270
267 261 228 167 183 239 203 193 161 150 160 153 157 142 82 47 43 36 30 44 47 43 30 3 304 248 246 255 258 252 263 260 257 269 250 244 256 260 260 270 271 268 273 260 258 259 273 269 251
256 277 288 255 219 209 209 209 173 150 143 161 199 172 33 18 14 19 18 17 20 29 9 354 335 281 271 282 258 257 250 257 253 268 258 258 263 261 273 269 271 271 268 268 266 262 264 269 255
273 305 283 252 243 229 235 252 161 158 156 194 255 349 4 11 12 10 15 14 4 10 24 9 344 309 288 275 257 254 256 264 275 278 284 275 263 264 265 268 271 271 274 274 268 271 272 263 259
318 314 270 256 257 261 234 263 175 152 216 245 288 338 2 6 10 9 12 11 8 19 23 15 2 310 289 281 267 263 272 284 282 276 275 272 274 271 268 270 274 273 274 277 279 274 265 264 262
306 264 236 239 247 254 247 267 269 97 327 359 53 53 43 23 21 19 22 28 25 25 11 4 14 331 314 302 291 282 287 290 285 277 276 274 275 275 279 280 280 279 283 281 274 272 262 268 268
289 290 264 246 245 265 93 273 1 48 38 16 48 72 75 59 43 32 28 30 23 15 5 354 357 344 334 326 310 300 293 284 273 279 280 283 285 284 290 291 286 286 283 278 275 271 270 267 262
310 298 299 294 293 302 271 275 63 62 65 53 55 69 75 62 47 39 31 30 21 10 2 352 346 338 336 333 318 313 302 294 286 283 290 288 290 293 293 289 284 284 284 281 277 272 267 266 261
308 307 314 287 279 281 272 215 138 96 69 49 47 53 50 44 40 33 27 25 20 11 5 354 347 341 334 333 329 322 314 317 312 298 285 291 298 296 293 292 289 287 287 288 286 280 275 271 264
335 317 293 291 295 290 276 291 350 41 23 21 18 25 33 28 28 29 21 17 16 10 4 356 354 348 341 340 335 333 326 321 316 306 305 307 305 301 292 288 287 281 282 283 279 275 264 262 261
333 318 309 304 303 298 304 354 40 24 16 4 7 12 19 11 3 12 9 2 3 5 3 358 357 349 341 338 337 337 333 335 327 320 311 306 301 298 297 298 298 291 288 288 283 280 277 270 265
336 342 319 309 310 294 296 352 65 35 28 16 10 9 17 9 3 6 1 354 353 357 356 356 351 343 339 338 335 336 334 332 325 323 318 310 306 302 301 301 297 293 296 297 291 287 288 279 276
Height
1519 1520 1522 1523 1516 1506 1502 1499 1500 1501 1503 1505 1506 1505 1504 1505 1507 1515 1517 1516 1517 1519 1519 1521 1523 1525 1527 1529 1531 1533 1535 1536 1537 1539 1540 1541 1542 1543 1544 1545 1545 1546 1546 1547 1547 1547 1548 1548 1548
1521 1521 1523 1519 1508 1506 1503 1498 1501 1502 1505 1507 1507 1507 1507 1508 1512 1514 1515 1516 1518 1519 1520 1522 1524 1526 1528 1530 1532 1533 1535 1536 1538 1539 1540 1541 1542 1543 1544 1544 1545 1545 1546 1546 1546 1547 1547 1547 1547
1521 1521 1521 1511 1504 1503 1502 1501 1502 1504 1507 1507 1507 1508 1509 1512 1514 1515 1516 1517 1519 1520 1521 1522 1524 1527 1529 1530 1532 1534 1535 1537 1538 1539 1540 1541 1542 1542 1543 1544 1544 1545 1545 1545 1546 1546 1546 1546 1546
1522 1522 1518 1508 1504 1500 1500 1502 1505 1505 1507 1507 1508 1508 1511 1515 1515 1516 1516 1518 1520 1521 1523 1523 1525 1527 1529 1531 1532 1534 1535 1537 1538 1539 1540 1541 1542 1542 1543 1543 1544 1544 1544 1544 1544 1545 1545 1545 1545
1522 1518 1509 1504 1501 1500 1503 1506 1506 1505 1506 1508 1508 1509 1512 1516 1515 1516 1517 1519 1521 1523 1524 1524 1526 1528 1529 1531 1533 1534 1535 1536 1538 1538 1539 1540 1541 1542 1542 1542 1543 1543 1543 1543 1543 1543 1543 1543 1543
1519 1513 1507 1504 1501 1501 1504 1507 1507 1505 1506 1508 1509 1509 1514 1516 1516 1517 1519 1520 1522 1524 1525 1525 1526 1527 1529 1531 1533 1534 1534 1536 1537 1538 1539 1539 1540 1541 1541 1541 1542 1542 1542 1542 1541 1541 1541 1541 1541
1516 1508 1503 1501 1502 1502 1505 1507 1507 1506 1506 1508 1510 1510 1514 1516 1517 1518 1519 1521 1523 1524 1525 1526 1526 1527 1529 1530 1532 1533 1534 1535 1536 1537 1538 1538 1539 1539 1539 1540 1540 1540 1540 1540 1540 1539 1539 1539 1539
1515 1508 1503 1501 1503 1503 1505 1507 1509 1508 1508 1511 1511 1511 1513 1517 1517 1518 1519 1521 1523 1524 1525 1526 1527 1528 1529 1530 1531 1532 1533 1534 1535 1535 1536 1537 1537 1537 1537 1538 1538 1538 1538 1538 1537 1537 1537 1537 1536
1516 1509 1504 1501 1503 1504 1506 1507 1508 1510 1511 1512 1513 1513 1515 1516 1516 1518 1519 1520 1522 1523 1524 1526 1527 1528 1529 1530 1530 1531 1532 1533 1533 1534 1535 1535 1536 1537 1536 1536 1535 1536 1536 1535 1535 1534 1534 1534 1533
1513 1506 1503 1504 1504 1504 1507 1508 1509 1509 1509 1511 1512 1514 1515 1515 1516 1517 1518 1520 1521 1522 1524 1525 1526 1527 1528 1529 1529 1530 1532 1532 1532 1533 1533 1534 1534 1535 1535 1534 1533 1533 1532 1532 1532 1531 1531 1531 1532
1510 1506 1505 1507 1508 1508 1508 1509 1509 1508 1508 1511 1512 1514 1515 1516 1517 1518 1519 1520 1521 1522 1523 1524 1524 1526 1527 1528 1528 1529 1530 1530 1531 1531 1531 1532 1532 1532 1532 1532 1531 1530 1530 1530 1530 1529 1529 1529 1529
1510 1509 1509 1508 1509 1509 1509 1509 1510 1511 1512 1513 1513 1514 1514 1515 1516 1518 1519 1520 1521 1522 1522 1523 1523 1524 1525 1526 1527 1527 1528 1528 1529 1529 1529 1530 1530 1529 1529 1529 1529 1529 1528 1527 1527 1527 1526 1526 1525
1508 1508 1509 1509 1509 1509 1510 1510 1511 1512 1513 1513 1513 1514 1514 1515 1517 1518 1518 1519 1520 1521 1521 1522 1522 1522 1523 1524 1525 1525 1526 1526 1526 1526 1527 1527 1527 1527 1526 1526 1525 1525 1525 1524 1523 1523 1523 1522 1522
1507 1507 1508 1507 1507 1509 1509 1510 1511 1512 1513 1514 1514 1514 1515 1516 1516 1517 1517 1518 1518 1519 1520 1520 1521 1521 1521 1522 1522 1523 1523 1523 1524 1524 1524 1524 1524 1524 1523 1523 1522 1522 1521 1521 1520 1520 1519 1519 1518
1508 1506 1504 1504 1505 1507 1508 1508 1510 1513 1513 1513 1514 1515 1515 1516 1516 1516 1517 1517 1518 1518 1518 1518 1519 1519 1520 1520 1520 1521 1521 1521 1521 1521 1521 1521 1521 1521 1520 1520 1519 1518 1518 1517 1516 1516 1515 1515 1514
1503 1500 1501 1502 1504 1505 1507 1507 1510 1512 1512 1513 1514 1515 1515 1516 1516 1517 1517 1517 1517 1516 1516 1516 1517 1517 1517 1517 1518 1519 1519 1519 1519 1519 1518 1518 1518 1518 1517 1517 1516 1515 1514 1514 1513 1513 1512 1511 1511
1497 1499 1500 1502 1503 1503 1503 1505 1510 1512 1512 1513 1514 1515 1516 1516 1516 1516 1516 1516 1516 1515 1515 1515 1515 1515 1515 1515 1515 1516 1516 1516 1516 1516 1516 1516 1515 1514 1514 1514 1513 1511 1511 1511 1510 1510 1509 1508 1507
1501 1498 1499 1501 1501 1502 1503 1505 1509 1512 1512 1513 1514 1515 1515 1516 1516 1516 1515 1515 1514 1514 1514 1514 1514 1514 1514 1514 1514 1513 1513 1513 1513 1513 1513 1513 1512 1512 1511 1511 1509 1509 1508 1507 1506 1505 1505 1504 1504
1498 1499 1500 1501 1501 1502 1503 1505 1508 1510 1512 1512 1513 1514 1515 1515 1516 1515 1515 1514 1514 1513 1512 1512 1512 1512 1512 1511 1511 1511 1511 1511 1511 1511 1510 1510 1509 1509 1508 1508 1506 1505 1504 1503 1503 1502 1501 1501 1501
1498 1499 1499 1501 1501 1501 1503 1505 1506 1509 1510 1512 1513 1514 1514 1514 1514 1514 1514 1513 1512 1512 1511 1510 1510 1510 1510 1510 1509 1509 1509 1508 1508 1508 1507 1506 1506 1506 1506 1504 1503 1502 1501 1500 1499 1498 1498 1497 1498
1499 1498 1498 1500 1500 1499 1502 1504 1504 1507 1510 1512 1513 1513 1513 1514 1514 1513 1513 1512 1511 1510 1510 1509 1508 1508 1508 1507 1507 1506 1506 1506 1507 1506 1504 1503 1503 1503 1502 1501 1500 1499 1498 1497 1496 1495 1494 1494 1494
1499 1495 1497 1498 1499 1496 1498 1502 1500 1502 1507 1510 1511 1512 1513 1513 1513 1513 1512 1511 1510 1510 1509 1508 1507 1506 1506 1505 1505 1504 1504 1504 1504 1503 1502 1502 1501 1500 1500 1498 1497 1496 1495 1494 1493 1492 1491 1490 1490
1497 1496 1496 1495 1495 1494 1495 1499 1496 1499 1504 1507 1510 1512 1512 1513 1512 1512 1511 1510 1510 1509 1508 1507 1506 1505 1504 1503 1503 1503 1503 1502 1502 1501 1500 1500 1499 1498 1497 1496 1494 1493 1492 1491 1490 1489 1488 1487 1487
1498 1496 1495 1493 1491 1501 1495 1500 1500 1500 1504 1505 1508 1511 1512 1512 1512 1512 1511 1510 1509 1509 1508 1507 1505 1504 1503 1502 1502 1501 1501 1500 1499 1499 1498 1498 1497 1496 1495 1493 1491 1490 1489 1488 1487 1485 1484 1484 1483
1497 1498 1502 1501 1500 1499 1494 1500 1504 1503 1506 1507 1509 1511 1512 1513 1512 1511 1511 1510 1509 1508 1507 1506 1505 1503 1502 1501 1500 1500 1499 1498 1497 1497 1496 1495 1494 1493 1492 1491 1489 1488 1486 1485 1484 1482 1481 1480 1479
1498 1499 1509 1513 1507 1498 1496 1501 1503 1506 1509 1510 1511 1511 1512 1513 1512 1512 1511 1510 1509 1508 1507 1505 1504 1503 1502 1500 1499 1498 1497 1497 1496 1495 1494 1493 1492 1490 1489 1488 1486 1485 1484 1482 1481 1480 1479 1477 1476
1498 1497 1497 1501 1500 1504 1498 1501 1502 1506 1508 1510 1511 1511 1512 1513 1513 1512 1512 1510 1510 1508 1507 1505 1503 1502 1501 1499 1498 1496 1495 1494 1493 1492 1491 1491 1489 1488 1486 1485 1483 1482 1481 1479 1477 1477 1475 1474 1474
1499 1498 1499 1503 1512 1512 1503 1501 1503 1505 1508 1509 1511 1511 1512 1513 1513 1512 1512 1511 1510 1508 1507 1505 1503 1501 1500 1498 1496 1495 1494 1493 1491 1490 1489 1487 1486 1485 1483 1482 1481 1479 1478 1476 1475 1474 1472 1472 1471
1502 1501 1501 1500 1502 1511 1512 1509 1505 1508 1510 1510 1512 1512 1513 1513 1513 1512 1512 1511 1510 1508 1506 1504 1503 1501 1499 1497 1496 1494 1492 1491 1490 1488 1486 1485 1483 1482 1481 1479 1478 1477 1476 1474 1473 1472 1470 1469 1468
1502 1503 1503 1510 1509 1506 1508 1512 1508 1509 1511 1512 1513 1513 1513 1513 1513 1512 1511 1511 1509 1508 1506 1504 1502 1500 1498 1497 1495 1493 1491 1490 1488 1486 1484 1483 1481 1479 1478 1477 1476 1475 1473 1472 1470 1469 1468 1467 1465